Location: Krakow
(50.0830°N, 19.9170°E)
Time: 07:22:19
(UTC+02:00)

Tiros 1 despin weight - Pass Details

Date: 20 March 2026
Orbit: 555 x 592 km, 48.2° (Epoch: 18 April)

Event Time Altitude Azimuth Distance (km) Brightness Sun altitude
Rises 02:36:57 0° 211° (SSW) 2,813 - -28.5°
Reaches altitude 10° 02:39:38 10° 195° (SSW) 1,914 - -28.2°
Maximum altitude 02:42:58 21° 146° (SE) 1,323 - -27.8°
Exits shadow 02:44:11 19° 123° (ESE) 1,415 ? -27.6°
Drops below altitude 10° 02:46:19 10° 96° (E) 1,913 ? -27.4°
Sets 02:49:00 0° 81° (E) 2,811 ? -27.0°
